Regional Weather Roundup
Issued by NWS

Home | Current Version | Previous Version | Graphics & Text | Print | Product List | Glossary On
Versions: 1 2 3 4 5 6 7 8 9 10 11 12 13 14 15 16 17 18 19 20 21 22 23 24 25 26 27 28 29 30 31 32 33 34 35 36 37 38 39 40 41 42 43 44 45 46 47 48 49 50
000
ASUS43 KFSD 241902
RWRSD

WEATHER ROUNDUP FOR SOUTH DAKOTA
NATIONAL WEATHER SERVICE SIOUX FALLS SD
100 PM CST FRI FEB 24 2017

NOTE: "FAIR" INDICATES FEW OR NO CLOUDS BELOW 12,000 FEET WITH NO
SIGNIFICANT WEATHER AND/OR OBSTRUCTIONS TO VISIBILITY.


SDZ001>005-009-010-012>017-242000-
NORTHWEST AND NORTH CENTRAL SOUTH DAKOTA

CITY           SKY/WX    TMP DP  RH WIND       PRES   REMARKS
BUFFALO          N/A     26  11  52 SE10      30.01F WCI  16
FAITH            N/A     26  13  57 NW10      30.09F WCI  16
MOBRIDGE       SUNNY     32  13  45 N15       30.08F WCI  22
$$

SDZ012>016-024>037-041>051-057-063-072>074-242000-
SOUTHWEST AND SOUTH CENTRAL SOUTH DAKOTA

CITY           SKY/WX    TMP DP  RH WIND       PRES   REMARKS
RAPID CTY ARPT CLOUDY    21  15  78 CALM      30.07F
PIERRE         CLOUDY    29  13  51 N14       30.09F WCI  18
CUSTER         CLOUDY    18   3  52 VRB3      29.92S
ELLSWORTH AFB  CLOUDY    21  15  78 VRB5      30.06F WCI  14
PHILIP         MOSUNNY   29  10  45 VRB7      30.11F WCI  22
PINE RIDGE     CLOUDY    22  17  81 CALM      30.07S
SPEARFISH      FAIR      19  16  86 CALM      30.02F
WINNER         MOCLDY    26  14  60 N16       30.06F WCI  14
$$

SDZ004>011-016>023-039-040-242000-
NORTHEAST SOUTH DAKOTA

CITY           SKY/WX    TMP DP  RH WIND       PRES   REMARKS
ABERDEEN       MOSUNNY   31  15  52 N20       30.05F WCI  19
WATERTOWN      CLOUDY    27  12  53 N29G36    29.96F WCI  11
BROOKINGS      MOSUNNY   27  13  55 N22G35    29.92F WCI  13
SISSETON         N/A     26  17  68 N20G31    30.02F WCI  12
$$

SDZ017-020-022-023-036>040-048>070-242000-
SOUTHEAST SOUTH DAKOTA

CITY           SKY/WX    TMP DP  RH WIND       PRES   REMARKS
SIOUX FALLS    CLOUDY    26  13  57 N21G35    29.92F WCI  12
HURON          CLOUDY    31  13  47 N18G32    30.03F WCI  19
CHAMBERLAIN    CLOUDY    30  16  56 N14       30.06F WCI  19
MITCHELL       CLOUDY    30  17  58 N23G32    30.01F WCI  17
YANKTON        CLOUDY    25  12  58 N25       29.96S WCI   9
$$

ABBREVIATIONS USED IN REMARKS
   TC - TEMPERATURE IN CELSIUS
  WCI - WIND CHILL INDEX
   HX - HEAT INDEX
  VSB - VISIBILITY




USA.gov is the U.S. government's official web portal to all federal, state and local government web resources and services.